This is the latest recevied weather packets stored in our database for station/object DL1BWU. If no packets are shown the sender has not sent any weather packets the latest 10 day(s).
| Time | Temp. | Humidity | Pressure | Rain* | Wind** | Luminosity | Snow |
|---|---|---|---|---|---|---|---|
| 1777797314 | 22.22° C | 48% | 1013.2 hPa | 0 mm | - | - | - |
| 1777796714 | 21.67° C | 49% | 1013.2 hPa | 0 mm | - | - | - |
| 1777796114 | 21.11° C | 49% | 1013.2 hPa | 0 mm | - | - | - |
| 1777795514 | 20.56° C | 50% | 1013.4 hPa | 0 mm | - | - | - |
| 1777794914 | 20° C | 50% | 1013.2 hPa | 0 mm | - | - | - |
| 1777794315 | 20° C | 51% | 1013.3 hPa | 0 mm | - | - | - |
| 1777793714 | 19.44° C | 51% | 1013.4 hPa | 0 mm | - | - | - |
| 1777793115 | 18.89° C | 52% | 1013.5 hPa | 0 mm | - | - | - |
| 1777792515 | 18.33° C | 52% | 1013.4 hPa | 0 mm | - | - | - |
| 1777791915 | 17.78° C | 53% | 1013.2 hPa | 0 mm | - | - | - |
| 1777791315 | 17.22° C | 54% | 1013.3 hPa | 0 mm | - | - | - |
| 1777790715 | 16.67° C | 54% | 1013.4 hPa | 0 mm | - | - | - |
| 1777790115 | 16.11° C | 55% | 1013.4 hPa | 0 mm | - | - | - |
| 1777789515 | 15.56° C | 56% | 1013.5 hPa | 0 mm | - | - | - |
| 1777788915 | 15° C | 57% | 1013.5 hPa | 0 mm | - | - | - |
| 1777788315 | 14.44° C | 58% | 1013.5 hPa | 0 mm | - | - | - |
| 1777787715 | 13.89° C | 59% | 1013.6 hPa | 0 mm | - | - | - |
| 1777787115 | 13.33° C | 60% | 1013.4 hPa | 0 mm | - | - | - |
| 1777786515 | 12.78° C | 61% | 1013.7 hPa | 0 mm | - | - | - |
| 1777785915 | 11.67° C | 62% | 1013.7 hPa | 0 mm | - | - | - |
| 1777785315 | 11.11° C | 62% | 1013.6 hPa | 0 mm | - | - | - |
| 1777784715 | 11.11° C | 62% | 1013.6 hPa | 0 mm | - | - | - |
| 1777784115 | 10.56° C | 62% | 1013.4 hPa | 0 mm | - | - | - |
| 1777783515 | 10.56° C | 62% | 1013.5 hPa | 0 mm | - | - | - |
| 1777782915 | 10.56° C | 62% | 1013.5 hPa | 0 mm | - | - | - |
* Rain latest hour (hover to see other rain measurements)
** Current wind speed in m/s (hover to see current wind gust speed)